GW3329 Weather Reports


Display with metric or nautical units.
time (UTC)temp
F
wind
direction
speed
MPH
gust
MPH
rain 1hr
in
rain 24hr
in
rain mn
in
humidity
%
barometer
mb
20260902224612 78 209 2.0 7.0 0.00 0.00 0.00 56 1018.7
20260902224107 78 144 6.0 13.0 0.00 0.00 0.00 57 1018.6
20260902223604 79 256 4.0 7.0 0.00 0.00 0.00 56 1018.8
20260902223103 80 277 4.0 8.0 0.00 0.00 0.00 56 1018.9
20260902222601 79 299 2.0 6.0 0.00 0.00 0.00 56 1018.8
20260902222100 80 195 1.0 4.0 0.00 0.00 0.00 55 1018.8
20260902221556 79 272 5.0 9.0 0.00 0.00 0.00 55 1019.1
20260902221056 78 221 4.0 6.0 0.00 0.00 0.00 57 1019.0
20260902220551 79 187 1.0 4.0 0.00 0.00 0.00 55 1019.0
20260902220046 79 207 5.0 7.0 0.00 0.00 0.00 55 1019.1
20260902215543 80 231 2.0 6.0 0.00 0.00 0.00 55 1019.0
20260902215038 80 257 5.0 8.0 0.00 0.00 0.00 55 1019.0
20260902214537 80 186 5.0 8.0 0.00 0.00 0.00 54 1019.2
20260902214036 80 172 6.0 10.0 0.00 0.00 0.00 55 1019.0
20260902213532 79 276 2.0 8.0 0.00 0.00 0.00 57 1019.3
20260902213031 79 356 4.0 6.0 0.00 0.00 0.00 57 1019.0
20260902212527 79 278 4.0 8.0 0.00 0.00 0.00 57 1019.2
20260902212023 79 182 10.0 11.0 0.00 0.00 0.00 57 1019.4
20260902211519 80 184 2.0 10.0 0.00 0.00 0.00 56 1019.1
20260902211014 80 276 2.0 6.0 0.00 0.00 0.00 56 1019.4
20260902210509 80 146 0.0 4.0 0.00 0.00 0.00 57 1019.3
20260902210008 80 197 1.0 2.0 0.00 0.00 0.00 56 1019.3
20260902205502 79 269 5.0 8.0 0.00 0.00 0.00 58 1019.7
20260902204958 80 316 6.0 9.0 0.00 0.00 0.00 57 1019.4
20260902204457 78 184 1.0 9.0 0.00 0.00 0.00 59 1019.7
20260902203953 79 18 3.0 3.0 0.00 0.00 0.00 59 1019.6
20260902203449 79 116 1.0 3.0 0.00 0.00 0.00 57 1019.3
20260902202947 80 231 2.0 6.0 0.00 0.00 0.00 58 1019.3
20260902202443 78 174 2.0 3.0 0.00 0.00 0.00 59 1019.4
20260902201940 79 81 0.0 6.0 0.00 0.00 0.00 59 1019.6
20260902201435 79 17 1.0 8.0 0.00 0.00 0.00 57 1019.6
20260902200934 79 244 3.0 7.0 0.00 0.00 0.00 57 1019.9
20260902200429 79 226 4.0 7.0 0.00 0.00 0.00 58 1019.8
20260902195925 79 110 2.0 3.0 0.00 0.00 0.00 58 1019.7
20260902195421 78 41 0.0 7.0 0.00 0.00 0.00 58 1019.9
20260902194915 79 15 6.0 10.0 0.00 0.00 0.00 58 1020.1
20260902194414 79 51 1.0 3.0 0.00 0.00 0.00 59 1020.0
20260902193909 78 218 2.0 8.0 0.00 0.00 0.00 59 1020.2
20260902193405 79 242 4.0 7.0 0.00 0.00 0.00 59 1020.0
20260902192903 79 124 1.0 9.0 0.00 0.00 0.00 60 1019.8
20260902192402 79 309 2.0 3.0 0.00 0.00 0.00 60 1020.1
20260902191857 79 228 5.0 8.0 0.00 0.00 0.00 58 1020.0
20260902191352 80 197 1.0 3.0 0.00 0.00 0.00 57 1020.1
20260902190842 79 214 2.0 3.0 0.00 0.00 0.00 57 1020.2
20260902190341 79 65 2.0 2.0 0.00 0.00 0.00 57 1020.2
20260902185838 78 229 1.0 3.0 0.00 0.00 0.00 57 1020.1
20260902185332 78 353 2.0 4.0 0.00 0.00 0.00 56 1020.0
20260902184828 79 301 4.0 7.0 0.00 0.00 0.00 55 1020.2
20260902184324 79 236 2.0 3.0 0.00 0.00 0.00 54 1020.3
20260902183819 79 103 1.0 3.0 0.00 0.00 0.00 54 1020.0
20260902183315 78 156 0.0 2.0 0.00 0.00 0.00 54 1020.2
20260902182811 78 52 2.0 4.0 0.00 0.00 0.00 54 1020.3
20260902182307 78 65 1.0 3.0 0.00 0.00 0.00 54 1020.1
20260902181804 78 299 5.0 8.0 0.00 0.00 0.00 52 1020.4
20260902181303 78 271 2.0 7.0 0.00 0.00 0.00 53 1020.4
20260902180758 78 146 1.0 2.0 0.00 0.00 0.00 54 1020.3
20260902180253 77 233 2.0 3.0 0.00 0.00 0.00 53 1020.2
20260902175748 78 198 4.0 4.0 0.00 0.00 0.00 53 1020.3
20260902175244 78 253 3.0 3.0 0.00 0.00 0.00 52 1020.4
20260902174740 78 144 1.0 3.0 0.00 0.00 0.00 53 1020.3
20260902174236 77 94 0.0 1.0 0.00 0.00 0.00 55 1020.4
20260902173732 76 114 2.0 2.0 0.00 0.00 0.00 55 1020.2
20260902173231 76 84 3.0 3.0 0.00 0.00 0.00 56 1020.4
20260902172726 76 131 0.0 2.0 0.00 0.00 0.00 56 1020.4
20260902172226 76 198 2.0 3.0 0.00 0.00 0.00 54 1020.5
20260902171721 76 62 1.0 1.0 0.00 0.00 0.00 55 1020.1
20260902171216 75 299 1.0 2.0 0.00 0.00 0.00 56 1020.3
20260902170712 75 103 1.0 1.0 0.00 0.00 0.00 55 1020.1
20260902170207 74 136 1.0 2.0 0.00 0.00 0.00 57 1020.2
20260902165702 74 109 0.0 1.0 0.00 0.00 0.00 58 1020.4
20260902165156 73 72 0.0 2.0 0.00 0.00 0.00 58 1020.1
20260902164652 74 46 0.0 2.0 0.00 0.00 0.00 58 1020.3
20260902164151 73 121 1.0 3.0 0.00 0.00 0.00 55 1020.0
20260902163646 73 84 0.0 1.0 0.00 0.00 0.00 55 1020.1
20260902163146 73 91 1.0 2.0 0.00 0.00 0.00 60 1020.2
20260902162644 72 112 1.0 2.0 0.00 0.00 0.00 60 1020.1
20260902162138 72 106 1.0 3.0 0.00 0.00 0.00 65 1020.0
20260902161634 71 135 1.0 2.0 0.00 0.00 0.00 64 1020.0
20260902161130 71 123 1.0 3.0 0.00 0.00 0.00 63 1019.9
20260902160626 71 78 0.0 1.0 0.00 0.00 0.00 67 1020.0
20260902160121 71 89 2.0 2.0 0.00 0.00 0.00 69 1020.0
20260902155619 70 90 2.0 2.0 0.00 0.00 0.00 72 1020.1
20260902155118 70 161 1.0 2.0 0.00 0.00 0.00 73 1020.0
20260902154614 69 128 2.0 3.0 0.00 0.00 0.00 74 1020.2
20260902154108 69 148 2.0 3.0 0.00 0.00 0.00 76 1020.1
20260902153607 69 123 1.0 3.0 0.00 0.00 0.00 77 1020.3
20260902153103 68 136 0.0 1.0 0.00 0.00 0.00 77 1020.1
20260902152559 68 153 2.0 3.0 0.00 0.00 0.00 77 1020.1
20260902152054 68 118 1.0 2.0 0.00 0.00 0.00 77 1020.2
20260902151549 67 122 0.0 1.0 0.00 0.00 0.00 80 1020.3
20260902151048 67 141 0.0 0.0 0.00 0.00 0.00 81 1020.2
20260902150544 66 141 0.0 1.0 0.00 0.00 0.00 82 1020.1
20260902150039 65 145 0.0 0.0 0.00 0.00 0.00 83 1019.9
20260902145529 64 117 1.0 2.0 0.00 0.00 0.00 85 1020.1
20260902145029 64 86 2.0 2.0 0.00 0.00 0.00 85 1020.0
20260902144526 63 115 2.0 3.0 0.00 0.00 0.00 86 1020.1
20260902144026 63 102 2.0 2.0 0.00 0.00 0.00 86 1020.1
20260902143520 63 95 2.0 2.0 0.00 0.00 0.00 86 1020.0
20260902143016 62 126 0.0 0.0 0.00 0.00 0.00 88 1020.1
20260902142512 61 111 0.0 0.0 0.00 0.00 0.00 88 1020.0
20260902142007 61 119 0.0 0.0 0.00 0.00 0.00 89 1020.1
20260902141501 59 130 0.0 0.0 0.00 0.00 0.00 92 1020.1
20260902140955 58 147 0.0 0.0 0.00 0.00 0.00 94 1019.9
20260902140451 57 148 0.0 0.0 0.00 0.00 0.00 95 1019.7
20260902135950 56 149 0.0 0.0 0.00 0.00 0.00 96 1019.7
20260902135446 56 135 0.0 0.0 0.00 0.00 0.00 96 1019.7
20260902134945 56 108 0.0 0.0 0.00 0.00 0.00 96 1019.7
20260902134441 56 118 0.0 0.0 0.00 0.00 0.00 96 1019.6
20260902133936 55 156 0.0 0.0 0.00 0.00 0.00 96 1019.4
20260902133431 55 140 0.0 0.0 0.00 0.00 0.00 96 1019.4
20260902132926 55 139 0.0 0.0 0.00 0.00 0.00 96 1019.6
20260902132421 55 152 0.0 0.0 0.00 0.00 0.00 96 1019.6
20260902131916 55 132 0.0 0.0 0.00 0.00 0.00 96 1019.3
20260902131413 55 134 0.0 0.0 0.00 0.00 0.00 96 1019.8
20260902130912 55 135 0.0 0.0 0.00 0.00 0.00 95 1019.3
20260902130408 55 135 0.0 0.0 0.00 0.00 0.00 95 1019.3
20260902125903 55 136 0.0 0.0 0.00 0.00 0.00 95 1019.4
20260902125359 55 140 0.0 0.0 0.00 0.00 0.00 95 1019.6
20260902124854 55 141 0.0 0.0 0.00 0.00 0.00 95 1019.3
20260902124350 55 141 0.0 0.0 0.00 0.00 0.00 95 1019.6
20260902123845 55 141 0.0 0.0 0.00 0.00 0.00 95 1019.3
20260902123342 55 141 0.0 0.0 0.00 0.00 0.00 94 1019.6
20260902122840 55 141 0.0 0.0 0.00 0.00 0.00 94 1019.4
20260902122336 56 137 0.0 0.0 0.00 0.00 0.00 94 1019.2
20260902121836 56 137 0.0 0.0 0.00 0.00 0.00 94 1019.3
20260902121331 56 137 0.0 0.0 0.00 0.00 0.00 93 1019.4
20260902120826 56 136 0.0 0.0 0.00 0.00 0.00 93 1019.4
20260902120323 57 153 0.0 0.0 0.00 0.00 0.00 93 1019.3
20260902115817 57 181 1.0 2.0 0.00 0.00 0.00 93 1019.3
20260902115314 56 186 3.0 4.0 0.00 0.00 0.00 94 1019.1
20260902114810 56 163 3.0 3.0 0.00 0.00 0.00 93 1019.4
20260902114306 56 138 0.0 0.0 0.00 0.00 0.00 92 1019.3
20260902113805 56 140 0.0 0.0 0.00 0.00 0.00 92 1019.3
20260902113300 56 155 1.0 1.0 0.00 0.00 0.00 92 1019.6
20260902112800 56 146 0.0 0.0 0.00 0.00 0.00 92 1019.6
20260902112257 56 142 0.0 0.0 0.00 0.00 0.00 93 1019.4
20260902111752 56 148 0.0 0.0 0.00 0.00 0.00 93 1019.3
20260902111249 55 126 0.0 1.0 0.00 0.00 0.00 94 1019.4
20260902110744 55 123 0.0 0.0 0.00 0.00 0.00 94 1019.4
20260902110239 55 132 0.0 0.0 0.00 0.00 0.00 94 1019.1
20260902105734 55 132 0.0 0.0 0.00 0.00 0.00 94 1019.4
20260902105229 55 121 0.0 0.0 0.00 0.00 0.00 94 1019.3
20260902104724 55 137 0.0 0.0 0.00 0.00 0.00 94 1019.2
20260902104221 55 143 0.0 0.0 0.00 0.00 0.00 95 1019.2
20260902103720 55 145 0.0 0.0 0.00 0.00 0.00 95 1019.4
20260902103214 54 150 0.0 0.0 0.00 0.00 0.00 94 1019.3
20260902102710 55 150 0.0 0.0 0.00 0.00 0.00 94 1019.3
20260902102207 55 149 0.0 0.0 0.00 0.00 0.00 94 1019.2
20260902101702 55 149 0.0 0.0 0.00 0.00 0.00 94 1019.4
20260902101156 55 149 0.0 0.0 0.00 0.00 0.00 94 1019.6
20260902100656 55 149 0.0 0.0 0.00 0.00 0.00 94 1019.7
20260902100150 55 149 0.0 0.0 0.00 0.00 0.00 94 1019.6
20260902095649 55 149 0.0 0.0 0.00 0.00 0.00 94 1019.3
20260902095144 55 155 0.0 0.0 0.00 0.00 0.00 94 1019.7
20260902094639 55 155 0.0 0.0 0.00 0.00 0.00 94 1019.2
20260902094136 55 144 0.0 0.0 0.00 0.00 0.00 94 1019.4
20260902093635 55 144 0.0 0.0 0.00 0.00 0.00 93 1019.3
20260902093130 56 144 0.0 0.0 0.00 0.00 0.00 93 1019.6
20260902092624 56 142 0.0 0.0 0.00 0.00 0.00 93 1019.6
20260902092120 56 148 0.0 0.0 0.00 0.00 0.00 93 1019.6
20260902091615 56 142 0.0 0.0 0.00 0.00 0.00 93 1019.6
20260902091111 56 142 0.0 0.0 0.00 0.00 0.00 93 1019.7
20260902090607 56 155 0.0 0.0 0.00 0.00 0.00 94 1019.8
20260902090105 56 156 0.0 0.0 0.00 0.00 0.00 93 1019.7
20260902085606 56 164 0.0 0.0 0.00 0.00 0.00 93 1019.7
20260902085101 56 145 0.0 0.0 0.00 0.00 0.00 93 1019.7
20260902084557 56 144 0.0 0.0 0.00 0.00 0.00 92 1019.6
20260902084053 57 144 0.0 0.0 0.00 0.00 0.00 92 1019.7
20260902083548 57 137 0.0 0.0 0.00 0.00 0.00 92 1019.7
20260902083047 57 156 0.0 0.0 0.00 0.00 0.00 92 1019.7
20260902082543 57 158 0.0 0.0 0.00 0.00 0.00 92 1019.7
20260902082039 57 149 0.0 0.0 0.00 0.00 0.00 92 1019.7
20260902081536 57 147 0.0 0.0 0.00 0.00 0.00 91 1019.6
20260902081035 57 153 0.0 0.0 0.00 0.00 0.00 91 1019.9
20260902080531 57 149 0.0 0.0 0.00 0.00 0.00 91 1019.7
20260902080027 58 146 0.0 0.0 0.00 0.00 0.00 90 1019.8
20260902075527 58 143 0.0 0.0 0.00 0.00 0.00 90 1019.7
20260902075023 59 136 0.0 0.0 0.00 0.00 0.00 91 1019.9
20260902074518 59 136 0.0 0.0 0.00 0.00 0.00 92 1019.8
20260902074013 59 171 0.0 0.0 0.00 0.00 0.00 93 1019.4
20260902073503 59 155 0.0 0.0 0.00 0.00 0.00 91 1019.4
20260902073000 58 197 0.0 0.0 0.00 0.00 0.00 91 1019.4
20260902072455 58 147 0.0 0.0 0.00 0.00 0.00 89 1019.7
20260902071951 58 152 0.0 0.0 0.00 0.00 0.00 89 1019.8
20260902071451 58 143 0.0 0.0 0.00 0.00 0.00 89 1019.2
20260902070947 59 171 0.0 0.0 0.00 0.00 0.00 89 1019.4
20260902070443 59 164 0.0 0.0 0.00 0.00 0.00 89 1019.6
20260902065941 59 157 0.0 0.0 0.00 0.00 0.00 90 1019.7
20260902065436 59 163 1.0 1.0 0.00 0.00 0.00 91 1019.4
20260902064932 59 165 0.0 0.0 0.00 0.00 0.00 89 1019.3
20260902064427 59 173 0.0 0.0 0.00 0.00 0.00 90 1019.6
20260902063923 59 157 0.0 0.0 0.00 0.00 0.00 91 1019.1
20260902063423 59 159 0.0 0.0 0.00 0.00 0.00 91 1019.3
20260902062917 59 149 0.0 0.0 0.00 0.00 0.00 91 1019.0
20260902062416 59 149 0.0 0.0 0.00 0.00 0.00 91 1019.1
20260902061911 59 149 0.0 0.0 0.00 0.00 0.00 91 1019.1
20260902061407 59 149 0.0 0.0 0.00 0.00 0.00 91 1019.1
20260902060903 59 149 0.0 0.0 0.00 0.00 0.00 90 1019.3
20260902060358 59 149 0.0 0.0 0.00 0.00 0.00 90 1019.2
20260902055854 59 149 0.0 0.0 0.00 0.00 0.00 91 1019.1
20260902055350 60 149 0.0 0.0 0.00 0.00 0.00 90 1019.1
20260902054845 60 149 0.0 0.0 0.00 0.00 0.00 90 1019.2
20260902054340 60 149 0.0 0.0 0.00 0.00 0.00 90 1019.1
20260902053836 60 149 0.0 0.0 0.00 0.00 0.00 90 1019.2
20260902053331 60 149 0.0 0.0 0.00 0.00 0.00 90 1019.2
20260902052830 60 149 0.0 0.0 0.00 0.00 0.00 89 1019.1
20260902052325 61 155 0.0 0.0 0.00 0.00 0.00 89 1019.2
20260902051820 60 162 0.0 0.0 0.00 0.00 0.00 90 1019.1
20260902051320 60 163 0.0 0.0 0.00 0.00 0.00 89 1019.3
20260902050814 60 164 0.0 0.0 0.00 0.00 0.00 89 1019.1
20260902050314 60 164 0.0 0.0 0.00 0.00 0.00 89 1019.2
20260902045809 60 164 0.0 0.0 0.00 0.00 0.00 89 1019.4
20260902045306 60 165 0.0 0.0 0.00 0.00 0.00 89 1019.1
20260902044801 61 165 0.0 0.0 0.00 0.00 0.00 87 1019.2
20260902044256 61 165 0.0 0.0 0.00 0.00 0.00 88 1019.0
20260902043751 61 165 0.0 0.0 0.00 0.00 0.00 88 1019.1
20260902043247 61 166 0.0 0.0 0.00 0.00 0.00 88 1019.0
20260902042745 61 166 0.0 0.0 0.00 0.00 0.00 86 1019.1
20260902042240 62 167 0.0 0.0 0.00 0.00 0.00 86 1018.9
20260902041736 62 167 0.0 0.0 0.00 0.00 0.00 86 1018.9
20260902041236 62 168 0.0 0.0 0.00 0.00 0.00 85 1018.7
20260902040735 62 171 0.0 0.0 0.00 0.00 0.00 84 1019.0
20260902040230 63 171 0.0 0.0 0.00 0.00 0.00 84 1018.6
20260902035729 63 171 0.0 0.0 0.00 0.00 0.00 84 1018.8
20260902035225 63 171 0.0 0.0 0.00 0.00 0.00 84 1018.8
20260902034723 64 174 0.0 0.0 0.00 0.00 0.00 83 1018.7
20260902034218 64 171 0.0 0.0 0.00 0.00 0.00 83 1018.6
20260902033717 64 190 0.0 0.0 0.00 0.00 0.00 82 1018.7
20260902033212 64 176 0.0 2.0 0.00 0.00 0.00 81 1018.6
20260902032710 64 162 0.0 0.0 0.00 0.00 0.00 80 1018.5
20260902032206 64 164 0.0 0.0 0.00 0.00 0.00 80 1018.3
20260902031705 65 169 0.0 0.0 0.00 0.00 0.00 79 1018.3
20260902031201 65 170 0.0 0.0 0.00 0.00 0.00 78 1018.3
20260902030656 65 170 0.0 0.0 0.00 0.00 0.00 78 1018.3
20260902030156 65 156 0.0 0.0 0.00 0.00 0.00 77 1018.4
20260902025650 65 164 0.0 0.0 0.00 0.00 0.00 76 1018.3
20260902025146 66 180 1.0 1.0 0.00 0.00 0.00 76 1018.2
20260902024641 66 165 0.0 2.0 0.00 0.00 0.00 75 1017.9
20260902024136 66 212 1.0 2.0 0.00 0.00 0.00 74 1018.0
20260902023631 66 199 2.0 2.0 0.00 0.00 0.00 74 1018.0
20260902023126 67 121 0.0 0.0 0.00 0.00 0.00 73 1018.0
20260902022625 67 153 0.0 1.0 0.00 0.00 0.00 72 1017.8
20260902022122 68 218 1.0 2.0 0.00 0.00 0.00 72 1017.8
20260902021617 68 221 1.0 2.0 0.00 0.00 0.00 71 1017.9
20260902021112 69 207 2.0 2.0 0.00 0.00 0.00 69 1018.2
20260902020608 69 96 1.0 1.0 0.00 0.00 0.00 68 1017.8
20260902020103 69 133 0.0 1.0 0.00 0.00 0.00 67 1017.6
20260902015559 70 147 1.0 1.0 0.00 0.00 0.00 65 1018.0
20260902015054 70 156 0.0 0.0 0.00 0.00 0.00 64 1018.0
20260902014550 70 127 1.0 2.0 0.00 0.00 0.00 64 1017.8
20260902014045 71 204 1.0 2.0 0.00 0.00 0.00 63 1017.7
20260902013545 71 264 2.0 4.0 0.00 0.00 0.00 62 1017.8
20260902013041 72 48 1.0 2.0 0.00 0.00 0.00 61 1017.7
20260902012536 73 101 1.0 1.0 0.00 0.00 0.00 60 1017.9
20260902012031 73 336 1.0 2.0 0.00 0.00 0.00 59 1017.7
20260902011532 74 259 0.0 0.0 0.00 0.00 0.00 59 1017.7
20260902011032 74 161 0.0 2.0 0.00 0.00 0.00 59 1017.9
20260902010531 74 226 1.0 2.0 0.00 0.00 0.00 59 1017.7
20260902010027 74 163 2.0 3.0 0.00 0.00 0.00 59 1017.8
20260902005524 75 267 4.0 6.0 0.00 0.00 0.00 59 1017.9
20260902005021 75 110 0.0 1.0 0.00 0.00 0.00 60 1017.7
20260902004520 74 207 1.0 3.0 0.00 0.00 0.00 61 1017.9
20260902004016 75 171 1.0 2.0 0.00 0.00 0.00 61 1018.0
20260902003511 75 291 1.0 2.0 0.00 0.00 0.00 62 1017.9
20260902003006 75 222 4.0 6.0 0.00 0.00 0.00 61 1018.1
20260902002503 75 129 0.0 2.0 0.00 0.00 0.00 61 1017.9
20260902002001 75 170 0.0 2.0 0.00 0.00 0.00 61 1017.9
20260902001456 75 138 1.0 2.0 0.00 0.00 0.00 62 1017.8
20260902000952 76 279 4.0 6.0 0.00 0.00 0.00 61 1018.1
20260902000447 75 161 0.0 2.0 0.00 0.00 0.00 62 1018.0
20260901235941 76 130 1.0 7.0 0.00 0.00 0.00 62 1018.1
20260901235436 76 121 0.0 2.0 0.00 0.00 0.00 63 1018.0
20260901234932 76 230 3.0 4.0 0.00 0.00 0.00 61 1017.9
20260901234426 76 303 4.0 6.0 0.00 0.00 0.00 62 1018.2
20260901233920 76 224 2.0 3.0 0.00 0.00 0.00 61 1018.0
20260901233415 77 183 2.0 6.0 0.00 0.00 0.00 61 1017.9
20260901232912 77 305 1.0 2.0 0.00 0.00 0.00 61 1018.1
20260901232407 76 261 4.0 8.0 0.00 0.00 0.00 61 1018.1
20260901231902 77 188 4.0 6.0 0.00 0.00 0.00 60 1018.1
20260901231358 77 146 2.0 8.0 0.00 0.00 0.00 61 1018.5
20260901230855 77 218 5.0 7.0 0.00 0.00 0.00 59 1018.3
20260901230354 78 232 3.0 7.0 0.00 0.00 0.00 59 1018.2
20260901225850 78 288 3.0 6.0 0.00 0.00 0.00 59 1018.5
20260901225349 77 186 1.0 3.0 0.00 0.00 0.00 59 1018.5
20260901224844 78 178 4.0 11.0 0.00 0.00 0.00 59 1018.4